Location: Apeadero de Los Molinos-Guadarrama
(40.7091°N, 4.0689°W)
Time: 11:36:45
(UTC+00:00)

Cosmos 158 Rocket - Pass Details

Date: 14 May 2021
Orbit: 699 x 793 km, 74.0° (Epoch: 18 June)

Event Time Altitude Azimuth Distance (km) Brightness Sun altitude
Rises 21:09:30 0° 345° (NNW) 3,092 8.2 -16.8°
Reaches altitude 10° 21:11:53 10° 351° (N) 2,174 7.2 -17.2°
Maximum altitude 21:16:39 51° 67° (ENE) 888 4.2 -17.8°
Enters shadow 21:18:29 34° 123° (ESE) 1,174 4.4 -18.0°
